| time (UTC) | temp F | wind direction | speed MPH | gust MPH | rain 1hr in | rain 24hr in | rain mn in | humidity % | barometer mb |
| 20260510093008 | 64 | 245 | 1.0 | 11.0 | 0.00 | 0.00 | 0.00 | 75 | 1029.2 |
| 20260510091510 | 64 | 245 | 2.0 | 11.0 | 0.00 | 0.00 | 0.00 | 75 | 1029.1 |
| 20260510090005 | 64 | 212 | 2.0 | 12.0 | 0.00 | 0.00 | 0.00 | 75 | 1028.9 |
| 20260510084503 | 64 | 205 | 3.0 | 10.0 | 0.00 | 0.00 | 0.00 | 75 | 1028.9 |
| 20260510083002 | 64 | 247 | 4.0 | 11.0 | 0.00 | 0.00 | 0.00 | 77 | 1028.6 |
| 20260510081605 | 64 | 201 | 4.0 | 9.0 | 0.00 | 0.00 | 0.00 | 76 | 1028.6 |
| 20260510080059 | 65 | 274 | 4.0 | 10.0 | 0.00 | 0.00 | 0.00 | 76 | 1028.3 |
| 20260510074558 | 65 | 234 | 2.0 | 9.0 | 0.00 | 0.00 | 0.00 | 76 | 1028.1 |
| 20260510073112 | 65 | 227 | 2.0 | 9.0 | 0.00 | 0.00 | 0.00 | 76 | 1028.1 |
| 20260510071605 | 65 | 249 | 5.0 | 9.0 | 0.00 | 0.00 | 0.00 | 75 | 1027.9 |
| 20260510070053 | 66 | 242 | 2.0 | 10.0 | 0.00 | 0.00 | 0.00 | 74 | 1027.7 |
| 20260510064559 | 67 | 207 | 2.0 | 12.0 | 0.00 | 0.00 | 0.00 | 72 | 1027.6 |
| 20260510063052 | 69 | 217 | 4.0 | 10.0 | 0.00 | 0.00 | 0.00 | 69 | 1027.5 |
| 20260510061551 | 72 | 217 | 6.0 | 11.0 | 0.00 | 0.00 | 0.00 | 63 | 1027.5 |
| 20260510060051 | 72 | 232 | 6.0 | 17.0 | 0.00 | 0.00 | 0.00 | 65 | 1027.3 |
| 20260510054550 | 75 | 216 | 5.0 | 13.0 | 0.00 | 0.00 | 0.00 | 60 | 1027.1 |
| 20260510053049 | 73 | 201 | 4.0 | 11.0 | 0.00 | 0.00 | 0.00 | 62 | 1027.0 |
| 20260510051549 | 76 | 205 | 4.0 | 10.0 | 0.00 | 0.00 | 0.00 | 56 | 1026.8 |
| 20260510050046 | 77 | 199 | 5.0 | 11.0 | 0.00 | 0.00 | 0.00 | 53 | 1026.8 |
| 20260510044550 | 78 | 200 | 5.0 | 11.0 | 0.00 | 0.00 | 0.00 | 51 | 1026.6 |
| 20260510043048 | 77 | 218 | 4.0 | 12.0 | 0.00 | 0.00 | 0.00 | 53 | 1026.6 |
| 20260510041548 | 78 | 215 | 6.0 | 16.0 | 0.00 | 0.00 | 0.00 | 54 | 1026.7 |
| 20260510040048 | 79 | 198 | 5.0 | 11.0 | 0.00 | 0.00 | 0.00 | 50 | 1026.7 |
| 20260510034541 | 78 | 164 | 4.0 | 11.0 | 0.00 | 0.00 | 0.00 | 53 | 1026.6 |
| 20260510033042 | 78 | 200 | 4.0 | 10.0 | 0.00 | 0.00 | 0.00 | 49 | 1026.4 |
| 20260510031550 | 79 | 210 | 4.0 | 8.0 | 0.00 | 0.00 | 0.00 | 49 | 1026.6 |
| 20260510030037 | 78 | 215 | 3.0 | 7.0 | 0.00 | 0.00 | 0.00 | 47 | 1026.6 |
| 20260510024536 | 78 | 224 | 4.0 | 9.0 | 0.00 | 0.00 | 0.00 | 47 | 1026.6 |
| 20260510023035 | 79 | 194 | 2.0 | 7.0 | 0.00 | 0.00 | 0.00 | 48 | 1026.6 |
| 20260510021538 | 80 | 251 | 4.0 | 7.0 | 0.00 | 0.00 | 0.00 | 44 | 1026.7 |
| 20260510020033 | 78 | 192 | 4.0 | 9.0 | 0.00 | 0.00 | 0.00 | 46 | 1027.0 |
| 20260510014527 | 78 | 259 | 1.0 | 8.0 | 0.00 | 0.00 | 0.00 | 47 | 1027.2 |
| 20260510013025 | 76 | 288 | 2.0 | 4.0 | 0.00 | 0.00 | 0.00 | 50 | 1027.3 |
| 20260510011525 | 76 | 228 | 2.0 | 8.0 | 0.00 | 0.00 | 0.00 | 49 | 1027.5 |
| 20260510010022 | 76 | 240 | 2.0 | 8.0 | 0.00 | 0.00 | 0.00 | 49 | 1027.6 |
| 20260510004519 | 74 | 289 | 2.0 | 7.0 | 0.00 | 0.00 | 0.00 | 50 | 1027.6 |
| 20260510003016 | 72 | 313 | 4.0 | 9.0 | 0.00 | 0.00 | 0.00 | 52 | 1027.7 |
| 20260510001513 | 71 | 293 | 6.0 | 9.0 | 0.00 | 0.00 | 0.00 | 54 | 1027.5 |
| 20260510000015 | 70 | 295 | 4.0 | 10.0 | 0.00 | 0.00 | 0.00 | 56 | 1027.4 |
| 20260509234504 | 68 | 269 | 4.0 | 11.0 | 0.00 | 0.00 | 0.00 | 59 | 1027.4 |
| 20260509233001 | 68 | 286 | 2.0 | 9.0 | 0.00 | 0.00 | 0.00 | 60 | 1027.3 |
| 20260509231558 | 66 | 243 | 6.0 | 12.0 | 0.00 | 0.00 | 0.00 | 63 | 1027.4 |
| 20260509230053 | 65 | 291 | 7.0 | 11.0 | 0.00 | 0.00 | 0.00 | 65 | 1027.3 |
| 20260509224557 | 63 | 318 | 6.0 | 13.0 | 0.00 | 0.00 | 0.00 | 67 | 1027.1 |
| 20260509223047 | 62 | 303 | 5.0 | 13.0 | 0.00 | 0.00 | 0.00 | 70 | 1027.1 |
| 20260509221554 | 59 | 297 | 7.0 | 13.0 | 0.00 | 0.00 | 0.00 | 75 | 1027.0 |
| 20260509220037 | 56 | 320 | 7.0 | 12.0 | 0.00 | 0.00 | 0.00 | 79 | 1027.0 |
| 20260509214533 | 55 | 310 | 7.0 | 12.0 | 0.00 | 0.00 | 0.00 | 81 | 1026.9 |
| 20260509213032 | 55 | 293 | 6.0 | 14.0 | 0.00 | 0.00 | 0.00 | 82 | 1026.7 |
| 20260509211530 | 54 | 307 | 6.0 | 13.0 | 0.00 | 0.00 | 0.00 | 82 | 1026.6 |
| 20260509210032 | 54 | 293 | 7.0 | 15.0 | 0.00 | 0.00 | 0.00 | 82 | 1026.1 |
| 20260509204524 | 54 | 304 | 9.0 | 14.0 | 0.00 | 0.00 | 0.00 | 82 | 1026.1 |
| 20260509203020 | 55 | 306 | 8.0 | 13.0 | 0.00 | 0.00 | 0.00 | 81 | 1025.8 |
| 20260509201519 | 55 | 326 | 7.0 | 15.0 | 0.00 | 0.00 | 0.00 | 81 | 1025.6 |
| 20260509200016 | 55 | 291 | 7.0 | 13.0 | 0.00 | 0.00 | 0.00 | 80 | 1025.5 |
| 20260509194513 | 56 | 303 | 7.0 | 14.0 | 0.00 | 0.00 | 0.00 | 79 | 1025.2 |
| 20260509193014 | 56 | 301 | 8.0 | 15.0 | 0.00 | 0.00 | 0.00 | 78 | 1025.1 |
| 20260509191609 | 57 | 290 | 7.0 | 13.0 | 0.00 | 0.00 | 0.00 | 78 | 1024.9 |
| 20260509190007 | 57 | 286 | 7.0 | 13.0 | 0.00 | 0.00 | 0.00 | 78 | 1024.8 |
| 20260509184505 | 56 | 330 | 8.0 | 14.0 | 0.00 | 0.00 | 0.00 | 78 | 1024.8 |
| 20260509183003 | 56 | 300 | 8.0 | 12.0 | 0.00 | 0.00 | 0.00 | 78 | 1024.7 |
| 20260509181501 | 56 | 300 | 5.0 | 11.0 | 0.00 | 0.00 | 0.00 | 79 | 1024.6 |
| 20260509174556 | 56 | 292 | 5.0 | 11.0 | 0.00 | 0.00 | 0.00 | 80 | 1024.7 |
| 20260509173053 | 56 | 307 | 6.0 | 9.0 | 0.00 | 0.00 | 0.00 | 79 | 1024.5 |
| 20260509171554 | 56 | 299 | 5.0 | 9.0 | 0.00 | 0.00 | 0.00 | 79 | 1024.6 |
| 20260509170054 | 56 | 313 | 5.0 | 10.0 | 0.00 | 0.00 | 0.00 | 79 | 1024.6 |
| 20260509164551 | 56 | 318 | 5.0 | 10.0 | 0.00 | 0.00 | 0.00 | 80 | 1024.5 |
| 20260509163045 | 56 | 289 | 4.0 | 8.0 | 0.00 | 0.00 | 0.00 | 80 | 1024.5 |
| 20260509161552 | 56 | 299 | 3.0 | 10.0 | 0.00 | 0.00 | 0.00 | 79 | 1024.5 |
| 20260509160040 | 56 | 297 | 4.0 | 9.0 | 0.00 | 0.00 | 0.00 | 79 | 1024.6 |
| 20260509154538 | 56 | 287 | 4.0 | 9.0 | 0.00 | 0.00 | 0.00 | 79 | 1024.6 |
| 20260509153036 | 56 | 291 | 4.0 | 10.0 | 0.00 | 0.00 | 0.00 | 79 | 1024.7 |
| 20260509151537 | 56 | 289 | 4.0 | 9.0 | 0.00 | 0.00 | 0.00 | 79 | 1024.7 |
| 20260509150036 | 56 | 300 | 3.0 | 9.0 | 0.00 | 0.00 | 0.00 | 79 | 1024.6 |
| 20260509144534 | 57 | 282 | 4.0 | 8.0 | 0.00 | 0.00 | 0.00 | 79 | 1024.6 |
| 20260509143029 | 57 | 303 | 4.0 | 10.0 | 0.00 | 0.00 | 0.00 | 79 | 1024.8 |
| 20260509141526 | 57 | 302 | 4.0 | 9.0 | 0.00 | 0.00 | 0.00 | 79 | 1024.6 |
| 20260509140023 | 57 | 310 | 4.0 | 8.0 | 0.00 | 0.00 | 0.00 | 79 | 1024.7 |
| 20260509134523 | 57 | 305 | 5.0 | 9.0 | 0.00 | 0.00 | 0.00 | 79 | 1024.6 |
| 20260509133022 | 57 | 293 | 4.0 | 8.0 | 0.00 | 0.00 | 0.00 | 79 | 1024.6 |
| 20260509131527 | 57 | 302 | 3.0 | 7.0 | 0.00 | 0.00 | 0.00 | 79 | 1024.7 |
| 20260509130021 | 57 | 309 | 3.0 | 8.0 | 0.00 | 0.00 | 0.00 | 79 | 1024.7 |
| 20260509124523 | 58 | 291 | 3.0 | 7.0 | 0.00 | 0.00 | 0.00 | 78 | 1024.8 |
| 20260509123020 | 58 | 297 | 3.0 | 7.0 | 0.00 | 0.00 | 0.00 | 78 | 1024.7 |
| 20260509121526 | 58 | 293 | 3.0 | 7.0 | 0.00 | 0.00 | 0.00 | 78 | 1024.9 |
| 20260509120022 | 58 | 287 | 2.0 | 5.0 | 0.00 | 0.00 | 0.00 | 78 | 1024.8 |
| 20260509114525 | 58 | 293 | 2.0 | 4.0 | 0.00 | 0.00 | 0.00 | 79 | 1024.8 |
| 20260509113018 | 57 | 286 | 2.0 | 4.0 | 0.00 | 0.00 | 0.00 | 81 | 1024.5 |
| 20260509111517 | 57 | 289 | 2.0 | 4.0 | 0.00 | 0.00 | 0.00 | 81 | 1024.7 |
| 20260509110017 | 57 | 282 | 1.0 | 3.0 | 0.00 | 0.00 | 0.00 | 80 | 1024.7 |
| 20260509104517 | 57 | 278 | 2.0 | 4.0 | 0.00 | 0.00 | 0.00 | 81 | 1024.6 |
| 20260509103014 | 57 | 259 | 2.0 | 4.0 | 0.00 | 0.00 | 0.00 | 80 | 1024.5 |
| 20260509101517 | 56 | 222 | 1.0 | 3.0 | 0.00 | 0.00 | 0.00 | 79 | 1024.4 |
| 20260509100020 | 57 | 222 | 0.0 | 3.0 | 0.00 | 0.00 | 0.00 | 77 | 1024.4 |
| 20260509094515 | 58 | 222 | 1.0 | 3.0 | 0.00 | 0.00 | 0.00 | 76 | 1024.3 |